This demonstration page uses our WeatherBlox Daily Observations layout. Learn more.

Hourly Observations for December 20, 2017

Temp ( °F °C ) Dew Point ( °F °C ) Humidity (%) Winds ( mph kmh ) Pressure ( in mb ) Visibility ( mi km ) Precip ( " mm )
12:53 am 00:53 Clear with Mist and Fog 37 2.8 37 2.8 100 100 Calm 30.09 1019 2.5 4.02335 0 0
1:32 am 01:32 Clear with Mist and Fog 34 1.1 34 1.1 100 100 Calm 30.12 1020 1.75 2.816345 0 0
1:51 am 01:51 Clear with Mist and Fog 34 1 34 1 100 100 WNW 3 6 30.12 1020 0.75 1.207005 0 0
1:53 am 01:53 Clear with Fog 34 1.1 34 1.1 100 100 Calm 30.09 1019 0.5 0.80467 0 0
2:06 am 02:06 Clear with Mist and Fog 34 1.1 34 1.1 100 100 Calm 30.12 1020 1.75 2.816345 0 0
2:14 am 02:14 Clear with Mist and Fog 34 1.1 34 1.1 100 100 Calm 30.12 1020 2 3.21868 0 0
2:34 am 02:34 Clear with Mist and Fog 33 0.6 33 0.6 100 100 Calm 30.12 1020 1.5 2.41401 0 0
2:44 am 02:44 Clear with Mist and Fog 33 0.6 33 0.6 100 100 Calm 30.12 1020 0.75 1.207005 0 0
2:48 am 02:48 Clear with Mist and Fog 32 0 32 0 100 100 Calm 30.12 1020 1.75 2.816345 0 0
2:53 am 02:53 Clear with Mist and Fog 32 0 32 0 100 100 Calm 30.09 1019 3 4.82802 0 0
3:05 am 03:05 Clear with Mist and Fog 32 0 32 0 100 100 Calm 30.12 1020 2 3.21868 0 0
3:11 am 03:11 Clear with Mist and Fog 32 0 32 0 100 100 Calm 30.12 1020 1.5 2.41401 0 0
3:40 am 03:40 Clear with Mist and Fog 32 0 32 0 100 100 Calm 30.12 1020 2 3.21868 0 0
3:50 am 03:50 Clear with Mist and Fog 32 0 32 0 100 100 Calm 30.12 1020 4 6.43736 0 0
3:53 am 03:53 Clear with Mist and Fog 32 0 32 0 100 100 Calm 30.08 1019 5 8.0467 0 0
4:24 am 04:24 Clear with Mist and Fog 32 0 31 -0.6 96 96 Calm 30.12 1020 2 3.21868 0 0
4:38 am 04:38 Clear with Mist and Fog 31 -0.6 30 -1.1 96 96 Calm 30.12 1020 4 6.43736 0 0
4:53 am 04:53 Clear with Mist and Fog 32 0 31 -0.6 96 96 Calm 30.09 1019 2 3.21868 0 0
5:06 am 05:06 Clear with Mist and Fog 32 0 32 0 100 100 Calm 30.12 1020 3 4.82802 0 0
5:14 am 05:14 Clear with Mist and Fog 32 0 31 -0.6 96 96 Calm 30.12 1020 2 3.21868 0 0
5:16 am 05:16 Clear with Mist and Fog 31 -0.6 31 -0.6 100 100 Calm 30.12 1020 1.5 2.41401 0 0
5:29 am 05:29 Clear with Mist and Fog 32 0 32 0 100 100 Calm 30.12 1020 2 3.21868 0 0
5:53 am 05:53 Clear with Mist and Fog 31 -0.6 30 -1.1 96 96 Calm 30.11 1020 4 6.43736 0 0
6:35 am 06:35 Clear with Mist and Fog 30 -1.1 30 -1.1 100 100 Calm 30.12 1020 2 3.21868 0 0
6:46 am 06:46 Clear with Mist and Fog 30 -1.1 29 -1.7 96 96 Calm 30.12 1020 5 8.0467 0 0
6:53 am 06:53 Clear with Mist and Fog 30 -1.1 30 -1.1 100 100 Calm 30.12 1020 4 6.43736 0 0
7:53 am 07:53 Clear with Mist and Fog 31 -0.6 30 -1.1 96 96 Calm 30.12 1020 4 6.43736 0 0
8:53 am 08:53 Mostly Sunny 35 1.7 31 -0.6 85 85 NNE 3 6 30.12 1020 10 16.0934 0 0
9:53 am 09:53 Sunny 38 3.3 29 -1.7 70 70 NNE 8 13 30.13 1020 10 16.0934 0 0
10:53 am 10:53 Sunny 40 4.4 29 -1.7 65 65 NE 6 9 30.12 1020 10 16.0934 0 0
11:53 am 11:53 Sunny 43 6.1 28 -2.2 56 56 NNE 6 9 30.1 1019 10 16.0934 0 0
12:53 pm 12:53 Sunny 45 7.2 25 -3.9 46 46 NNE 6 9 30.08 1019 10 16.0934 0 0
1:53 pm 13:53 Sunny 46 7.8 25 -3.9 44 44 ENE 7 11 30.06 1018 10 16.0934 0 0
2:53 pm 14:53 Sunny 48 8.9 25 -3.9 41 41 N 7 11 30.04 1017 10 16.0934 0 0
3:53 pm 15:53 Sunny 47 8.3 20 -6.7 34 34 NNE 7 11 30.05 1018 10 16.0934 0 0
4:53 pm 16:53 Sunny 44 6.7 22 -5.6 41 41 NNE 6 9 30.06 1018 10 16.0934 0 0
5:53 pm 17:53 Clear 36 2.2 23 -5 59 59 N 5 7 30.08 1019 10 16.0934 0 0
6:53 pm 18:53 Clear 37 2.8 21 -6.1 52 52 NNE 5 7 30.09 1019 10 16.0934 0 0
7:53 pm 19:53 Partly Cloudy 38 3.3 23 -5 55 55 NNE 7 11 30.09 1019 10 16.0934 0 0
8:53 pm 20:53 Clear 32 0 23 -5 69 69 NE 5 7 30.09 1019 10 16.0934 0 0
9:53 pm 21:53 Clear 28 -2.2 22 -5.6 78 78 N 5 7 30.1 1019 10 16.0934 0 0
10:53 pm 22:53 Mostly Clear 28 -2.2 22 -5.6 78 78 Calm 30.11 1020 10 16.0934 0 0
11:53 pm 23:53 Partly Cloudy 29 -1.7 22 -5.6 75 75 ENE 5 7 30.1 1019 10 16.0934 0 0

Powered by AerisWeather